Weather History for ENOA - March, 2014

Change the Weather History Date:

Friday, March 28, 2014

  Actual Average Record
Temperature  
Mean Temperature 44 °F -  
Max Temperature 59 °F 43 °F 59 °F (2014)
Min Temperature 28 °F 39 °F 6 °F (2013)
Degree Days  
Heating Degree Days 22    
Moisture  
Dew Point 32 °F    
Average Humidity 67    
Maximum Humidity 93    
Minimum Humidity 6    
Precipitation  
Precipitation 0.00 in - - ()
Sea Level Pressure  
Sea Level Pressure 30.42 in    
Wind  
Wind Speed 6 mph ()    
Max Wind Speed 20 mph    
Max Gust Speed -    
Visibility 6.2 miles    
Events Rain    
Averages and records for this station are not official NWS values.
T = Trace of Precipitation, MM = Missing Value Source: Averaged Metar Reports

Daily Weather History Graph

Daily Weather History Graph

Search for Another Location

Airport or City:

Trip Planner

Search our weather history database for the weather conditions in past years. The results will help you decide how hot, cold, wet, or windy it might be!

Date:

Astronomy

Mar. 28, 2014 Rise Set
Actual Time 6:26 AM CET 7:22 PM CET
Civil Twilight 5:43 AM CET 8:06 PM CET
Nautical Twilight 4:50 AM CET 8:59 PM CET
Astronomical Twilight 3:50 AM CET 10:00 PM CET
Moon 5:25 AM CET (3/28) 4:30 PM CET (3/28)
Length of Visible Light 14h 22m
Length of Day
12h 56m
Waning Crescent, 7% of the Moon is Illuminated
Mar 28
Waning Crescent
Mar 30
New
Apr 7
First Quarter
Apr 15
Full
Apr 22
Last Quarter

Hourly Weather History & Observations

Time (CET) Temp. Windchill Dew Point Humidity Pressure Visibility Wind Dir Wind Speed Gust Speed Precip Events Conditions
12:00 AM 35 °F - 29 °F 73% 30.40 in - North 2.2 mph - -  
12:50 AM 44.6 °F 36.6 °F 39.2 °F 81% 30.30 in - NE 19.6 mph - N/A   Clear
1:00 AM 34 °F - 30 °F 81% 30.41 in - North 2.2 mph - -  
1:50 AM 44.6 °F 38.4 °F 39.2 °F 81% 30.30 in - East 12.7 mph - N/A   Clear
2:00 AM 35 °F - 30 °F 75% 30.43 in - NNE 2.2 mph - -  
2:50 AM 42.8 °F 37.5 °F 39.2 °F 87% 30.30 in - SE 9.2 mph - N/A   Clear
3:00 AM 35 °F - 30 °F 74% 30.45 in - North 2.2 mph - -  
3:50 AM 42.8 °F 35.4 °F 39.2 °F 87% 30.30 in 5.6 mi South 15.0 mph - N/A Rain Light Rain Showers
4:00 AM 31 °F - 28 °F 85% 30.46 in - North 2.2 mph - -  
4:50 AM 44.6 °F 38.8 °F 41.0 °F 87% 30.33 in 6.2 mi SSW 11.5 mph - N/A   Overcast
5:00 AM 29 °F - 27 °F 88% 30.48 in - North 2.2 mph - -  
5:50 AM 44.6 °F 39.7 °F 41.0 °F 87% 30.33 in 6.2 mi SSW 9.2 mph - N/A   Overcast
6:00 AM 29 °F - 26 °F 85% 30.48 in - NNW 4.5 mph - -  
6:20 AM 44.6 °F 39.7 °F 41.0 °F 87% 30.33 in 6.2 mi SW 9.2 mph - N/A   Mostly Cloudy
6:50 AM 42.8 °F 37.5 °F 41.0 °F 93% 30.33 in 6.2 mi SW 9.2 mph - N/A   Mostly Cloudy
7:00 AM 29 °F - 26 °F 82% 30.49 in - North 2.2 mph - -  
7:20 AM 42.8 °F 38.0 °F 41.0 °F 93% 30.33 in 6.2 mi SW 8.1 mph - N/A   Mostly Cloudy
8:00 AM 33 °F - 28 °F 73% 30.50 in - ESE 2.2 mph - -  
8:20 AM 44.6 °F 41.4 °F 41.0 °F 87% 30.36 in 6.2 mi SW 5.8 mph - N/A   Mostly Cloudy
8:50 AM 44.6 °F 42.2 °F 41.0 °F 87% 30.36 in 6.2 mi SW 4.6 mph - N/A   Mostly Cloudy
9:00 AM 42 °F - 28 °F 44% 30.49 in - Calm Calm - -  
9:50 AM 44.6 °F - 41.0 °F 87% 30.39 in 6.2 mi Variable 1.2 mph - N/A   Mostly Cloudy
10:00 AM 48 °F - 10 °F 11% 30.50 in - East 4.5 mph - -  
10:50 AM 44.6 °F - 41.0 °F 87% 30.39 in 6.2 mi NW 1.2 mph - N/A   Mostly Cloudy
11:00 AM 51 °F - 8 °F 8% 30.49 in - East 4.5 mph - -  
11:50 AM 44.6 °F 42.2 °F 41.0 °F 87% 30.42 in 6.2 mi NNW 4.6 mph - N/A   Mostly Cloudy
12:00 PM 53 °F - 7 °F 7% 30.48 in - ENE 4.5 mph - -  
12:20 PM 44.6 °F 42.2 °F 41.0 °F 87% 30.42 in 6.2 mi NNW 4.6 mph - N/A   Mostly Cloudy
12:50 PM 46.4 °F 43.5 °F 41.0 °F 81% 30.42 in 6.2 mi NNW 5.8 mph - N/A   Mostly Cloudy
1:00 PM 55 °F - 10 °F 8% 30.47 in - East 4.5 mph - -  
1:50 PM 48.2 °F - 42.8 °F 82% 30.42 in 6.2 mi North 5.8 mph - N/A   Mostly Cloudy
2:00 PM 57 °F - 13 °F 8% 30.46 in - SSE 4.5 mph - -  
2:20 PM 48.2 °F - 42.8 °F 82% 30.42 in 6.2 mi North 6.9 mph - N/A   Mostly Cloudy
2:50 PM 48.2 °F - 41.0 °F 76% 30.42 in 6.2 mi North 9.2 mph - N/A   Mostly Cloudy
3:00 PM 58 °F - 11 °F 7% 30.45 in - SE 4.5 mph - -  
3:20 PM 48.2 °F - 41.0 °F 76% 30.42 in 6.2 mi NNE 4.6 mph - N/A   Scattered Clouds
3:50 PM 50.0 °F - 41.0 °F 71% 30.42 in 6.2 mi NNE 5.8 mph - N/A   Partly Cloudy
4:00 PM 59 °F - 8 °F 6% 30.44 in - East 4.5 mph - -  
4:20 PM 50.0 °F - 41.0 °F 71% 30.42 in - NNE 6.9 mph - N/A   Clear
4:50 PM 50.0 °F - 42.8 °F 76% 30.42 in - NNE 6.9 mph - N/A   Clear
5:00 PM 59 °F - 11 °F 7% 30.43 in - ENE 2.2 mph - -  
5:20 PM 50.0 °F - 42.8 °F 76% 30.42 in - NNE 6.9 mph - N/A   Clear
5:50 PM 50.0 °F - 42.8 °F 76% 30.42 in - NNE 6.9 mph - N/A   Clear
6:00 PM 55 °F - 16 °F 11% 30.43 in - East 4.5 mph - -  
6:20 PM 50.0 °F - 41.0 °F 71% 30.42 in - NNE 11.5 mph - N/A   Clear
6:50 PM 48.2 °F - 41.0 °F 76% 30.42 in - NNE 11.5 mph - N/A   Clear
7:00 PM 42 °F - 28 °F 44% 30.45 in - NNW 2.2 mph - -  
7:50 PM 46.4 °F 40.7 °F 39.2 °F 76% 30.42 in - NNE 12.7 mph - N/A   Clear
8:00 PM 35 °F - 28 °F 66% 30.47 in - Calm Calm - -  
9:00 PM 32 °F - 26 °F 72% 30.48 in - North 2.2 mph - -  
9:50 PM 46.4 °F 39.8 °F 39.2 °F 76% 30.42 in - NE 16.1 mph - N/A   Clear
10:00 PM 30 °F - 26 °F 79% 30.48 in - North 2.2 mph - -  
10:50 PM 46.4 °F 39.8 °F 39.2 °F 76% 30.42 in - NE 16.1 mph - N/A   Clear
11:00 PM 28 °F - 24 °F 78% 30.48 in - North 2.2 mph - -